Location: *
(47.6569°N, 7.4256°E)
Time: 15:59:30
(UTC+00:00)

Lacrosse 4 Rocket - Pass Details

Date: 14 December 2019
Orbit: 540 x 618 km, 68.0° (Epoch: 18 January)

Event Time Altitude Azimuth Distance (km) Brightness Sun altitude
Rises 17:27:37 0° 337° (NNW) 2,756 5.0 -17.4°
Reaches altitude 10° 17:30:44 10° 3° (N) 1,873 3.8 -17.9°
Enters shadow 17:31:12 11° 9° (N) 1,780 3.7 -18.0°
